Location: Beuerbach
(48.1459°N, 10.9174°E)
Time: 01:37:37
(UTC+00:00)

Meteor 1-21 - Pass Details

Date: 08 August 2024
Orbit: 845 x 885 km, 81.2° (Epoch: 09 September)

Event Time Altitude Azimuth Distance (km) Brightness Sun altitude
Rises 02:29:34 0° 332° (NNW) 3,417 7.6 -13.5°
Reaches altitude 10° 02:33:10 10° 309° (NW) 2,476 6.6 -13.0°
Maximum altitude 02:35:56 14° 279° (W) 2,197 6.0 -12.7°
Enters shadow 02:37:41 12° 259° (WSW) 2,313 6.0 -12.5°
